Flag for U.S.A. Weather past 2 weeks in Menominee, Michigan, U.S.A.

Now
30 °F

Overcast.


Feels Like: 30 °F
Forecast: 19 / 29 °F
Wind: No wind

Location: Menominee Weather Reporting Station

Current Time: Dec 20, 2014 at 3:22:35 PM

Latest Report: Dec 20, 2014 at 2:55 PM


Visibility: 8 mi

Pressure: 30.23 "Hg

Humidity: 75%

Dew point: 23 °F

Location of MenomineeLocation

Historic Weather in Menominee — Graph

°F

Menominee temperature yesterday

Maximum temperature yesterday: 30 °F (at 11:55 AM)
Minimum temperature yesterday: 14 °F (at 5:35 AM)
Average temperature yesterday: 20 °F

Past Weeks' High & Low Weather Summary

 TemperatureHumidityPressure
High45 °F (Dec 15, 11:35 AM)100% (Dec 12, 1:15 AM)30.69 "Hg (Dec 12, 1:15 AM)
Low9 °F (Dec 11, 2:55 AM)48% (Dec 6, 2:35 PM)29.68 "Hg (Dec 16, 4:15 AM)
Average28 °F83%30.18 "Hg
* Reported Dec 5 2:15 PM — Dec 20 2:15 PM, Menominee, Weather by CustomWeather, © 2014

Note: Actual official high and low records may vary slightly from our data, if they occured in-between our weather recording intervals... More about our weather records

Advertising

Menominee weather history for previous 24 hours

 ConditionsComfort  
Time TempWeatherWind HumidityBarometerVisibility
2:15 PM
Dec 20
30 °FOvercast.No wind69%30.22 "Hg7 mi
1:55 PM28 °FOvercast.No wind74%30.22 "Hg8 mi
1:35 PM28 °FOvercast.No wind80%30.22 "Hg8 mi
1:15 PM28 °FMostly cloudy.No wind74%30.22 "Hg9 mi
12:55 PM27 °FMostly cloudy.No wind80%30.23 "Hg9 mi
12:35 PM27 °FOvercast.No wind80%30.23 "Hg8 mi
12:15 PMN/AOvercast.No windN/A30.23 "Hg8 mi
11:55 AM27 °FOvercast.No wind86%30.25 "Hg8 mi
11:35 AM27 °FOvercast.No wind80%30.25 "Hg8 mi
11:15 AM25 °FOvercast.No wind86%30.26 "Hg8 mi
10:55 AM25 °FOvercast.No wind86%30.26 "Hg7 mi
10:35 AM25 °FOvercast.No wind80%30.27 "Hg7 mi
10:15 AM25 °FOvercast.No wind86%30.27 "Hg6 mi
9:55 AM23 °FOvercast.No wind86%30.27 "Hg7 mi
9:35 AM21 °FOvercast.No wind93%30.27 "Hg6 mi
9:15 AM19 °FOvercast.No wind100%30.27 "Hg5 mi
8:55 AM18 °FOvercast.No wind93%30.27 "Hg6 mi
8:35 AM18 °FOvercast.No wind93%30.27 "Hg5 mi
8:15 AM16 °FMostly cloudy.No wind86%30.26 "Hg5 mi
7:55 AM16 °FPartly sunny.No wind86%30.26 "Hg5 mi
7:35 AM14 °FScattered clouds.No wind92%30.26 "Hg6 mi
7:15 AM14 °FScattered clouds.No wind92%30.27 "Hg7 mi
6:55 AM14 °FPassing clouds.No wind85%30.27 "Hg8 mi
6:35 AM16 °FPassing clouds.No wind79%30.27 "Hg8 mi
5:55 AM14 °FPassing clouds.No wind92%30.26 "Hg10 mi
5:35 AM16 °FPassing clouds.No wind86%30.27 "Hg9 mi
5:15 AM16 °FOvercast.No wind86%30.27 "Hg9 mi
4:55 AM16 °FOvercast.No wind79%30.27 "Hg9 mi
4:35 AM14 °FOvercast.No wind85%30.26 "Hg10 mi
4:15 AM14 °FPassing clouds.No wind92%30.26 "Hg10 mi
3:55 AM14 °FOvercast.No wind85%30.26 "Hg9 mi
3:35 AM12 °FOvercast.No wind92%30.25 "Hg10 mi
3:15 AM12 °FPassing clouds.No wind85%30.26 "Hg9 mi
2:55 AM12 °FClear.No wind92%30.26 "Hg10 mi
2:35 AM14 °FClear.No wind85%30.26 "Hg10 mi
2:15 AM14 °FClear.No wind85%30.26 "Hg10 mi
1:55 AM12 °FClear.No wind92%30.26 "Hg10 mi
1:35 AM14 °FClear.No wind85%30.26 "Hg10 mi
1:15 AM12 °FClear.No wind92%30.26 "Hg9 mi
12:55 AM14 °FClear.No wind85%30.26 "Hg8 mi
12:35 AM14 °FClear.No wind92%30.26 "Hg8 mi
12:15 AM14 °FClear.No wind92%30.25 "Hg10 mi
11:55 PM
Dec 19
14 °FClear.No wind85%30.25 "Hg8 mi
11:35 PM16 °FClear.No wind86%30.26 "Hg10 mi
11:15 PM16 °FClear.No wind86%30.26 "Hg10 mi
10:55 PM16 °FClear.No wind86%30.25 "Hg10 mi
10:35 PM16 °FClear.No wind86%30.25 "Hg10 mi
9:55 PM18 °FClear.No wind93%30.25 "Hg10 mi
9:35 PM18 °FClear.No wind86%30.25 "Hg10 mi
8:55 PM18 °FClear.No wind93%30.26 "Hg10 mi
8:35 PM19 °FClear.No wind93%30.27 "Hg10 mi
8:15 PM19 °FClear.No wind93%30.28 "Hg8 mi
7:55 PM19 °FClear.No wind86%30.28 "Hg9 mi
7:35 PM19 °FClear.No wind93%30.29 "Hg7 mi
7:15 PM19 °FClear.No wind86%30.29 "Hg10 mi
6:55 PM21 °FClear.No wind80%30.29 "Hg10 mi
6:35 PM21 °FClear.No wind93%30.29 "Hg10 mi
6:15 PM23 °FClear.No wind86%30.29 "Hg10 mi
5:55 PM23 °FClear.No wind86%30.29 "Hg10 mi
5:35 PM25 °FClear.No wind80%30.29 "Hg10 mi
5:15 PM25 °FClear.No wind80%30.28 "Hg10 mi
4:55 PM27 °FPassing clouds.No wind74%30.28 "Hg10 mi
4:35 PM27 °FPassing clouds.5 mph74%30.27 "Hg10 mi
4:15 PM27 °FOvercast.3 mph74%30.27 "Hg10 mi
3:55 PM27 °FPassing clouds.6 mph80%30.27 "Hg10 mi
3:35 PM28 °FOvercast.5 mph69%30.27 "Hg10 mi
3:15 PM28 °FOvercast.6 mph69%30.26 "Hg10 mi
Weather by CustomWeather, © 2014

See weather overviewHow to use our weather pages